Weather History for Nassau, Bahamas

Change the Weather History Date:

Friday, October 5, 2012

  Actual Average Record
Temperature  
Mean Temperature 84 °F -  
Max Temperature 89 °F 84 °F 91 °F (2000)
Min Temperature 78 °F 71 °F 75 °F (2000)
Cooling Degree Days 18    
Growing Degree Days 34 (Base 50)    
Moisture  
Dew Point 76 °F    
Average Humidity 77    
Maximum Humidity 94    
Minimum Humidity 61    
Precipitation  
Precipitation 0.20 in 0.20 in - ()
Sea Level Pressure  
Sea Level Pressure 30.00 in    
Wind  
Wind Speed 5 mph ()    
Max Wind Speed 12 mph    
Max Gust Speed -    
Visibility 6.8 miles    
Events      
Averages and records for this station are not official NWS values.
T = Trace of Precipitation, MM = Missing Value Source: Averaged Metar Reports

Daily Weather History Graph

Daily Weather History Graph

Search for Another Location

Airport:

Trip Planner

Search our weather history database for the weather conditions in past years. The results will help you decide how hot, cold, wet, or windy it might be!

Date:

Astronomy

Oct. 05, 2012 Rise Set
Actual Time 7:03 AM EDT 6:52 PM EDT
Civil Twilight 6:40 AM EDT 7:14 PM EDT
Nautical Twilight 6:14 AM EDT 7:41 PM EDT
Astronomical Twilight 5:47 AM EDT 8:07 PM EDT
Moon 10:41 PM EDT (10/5) 11:41 AM EDT (10/5)
Length of Visible Light 12h 33m
Length of Day
11h 48m
Waning Gibbous, 74% of the Moon is Illuminated
Oct 5
Waning Gibbous
Oct 8
Last Quarter
Oct 15
New
Oct 21
First Quarter
Oct 29
Full

Hourly Weather History & Observations

Time (EDT) Temp. Heat Index Dew Point Humidity Pressure Visibility Wind Dir Wind Speed Gust Speed Precip Events Conditions
12:00 AM 82.4 °F 89.5 °F 75.2 °F 79% 30.09 in 6.2 mi ENE 5.8 mph - N/A   Scattered Clouds
1:00 AM 82.4 °F 89.5 °F 75.2 °F 79% 30.07 in 6.2 mi ENE 6.9 mph - N/A   Scattered Clouds
2:00 AM 82 °F - 77 °F 82% 30.06 in 9 mi NE 5.8 mph - -   Partly Cloudy
2:00 AM 82.4 °F 90.9 °F 77.0 °F 84% 30.06 in 6.2 mi NE 5.8 mph - N/A   Scattered Clouds
4:00 AM 78.8 °F - 73.4 °F 83% 30.04 in 6.2 mi NNE 4.6 mph - N/A   Partly Cloudy
5:00 AM 79 °F - 74 °F 80% 30.03 in 9 mi NE 4.6 mph - -   Scattered Clouds
5:00 AM 78.8 °F - 73.4 °F 83% 30.03 in 6.2 mi NE 4.6 mph - N/A   Partly Cloudy
6:00 AM 80.6 °F 86.2 °F 75.2 °F 84% 30.01 in 6.2 mi Variable 2.3 mph - N/A   Scattered Clouds
7:00 AM 80.6 °F 86.2 °F 75.2 °F 84% 30.04 in 6.2 mi NE 3.5 mph - N/A   Scattered Clouds
8:00 AM 81 °F - 78 °F 88% 30.04 in 8 mi ENE 2.3 mph - -   Partly Cloudy
8:00 AM 80.6 °F 88.1 °F 78.8 °F 94% 30.03 in 6.2 mi ENE 2.3 mph - N/A   Scattered Clouds
9:00 AM 82.4 °F 89.5 °F 75.2 °F 79% 30.04 in 6.2 mi NE 3.5 mph - N/A   Scattered Clouds
10:00 AM 84.2 °F 92.3 °F 75.2 °F 74% 30.04 in 6.2 mi ENE 11.5 mph - N/A   Scattered Clouds
11:00 AM 88 °F - 76 °F 61% 30.04 in 9 mi ENE 10.4 mph - -   Partly Cloudy
11:00 AM 87.8 °F 99.7 °F 77.0 °F 70% 30.03 in 6.2 mi ENE 10.4 mph - N/A   Scattered Clouds
12:00 PM 86.0 °F 95.1 °F 75.2 °F 70% 30.03 in 6.2 mi NNE 3.5 mph - N/A   Scattered Clouds
1:00 PM 86.0 °F 95.1 °F 75.2 °F 70% 30.01 in 6.2 mi NE 5.8 mph - N/A   Scattered Clouds
2:00 PM 89 °F - 78 °F 62% 30.00 in 9 mi NE 5.8 mph - -   Partly Cloudy
2:00 PM 89.6 °F 104.7 °F 78.8 °F 70% 29.99 in 6.2 mi NE 5.8 mph - N/A   Scattered Clouds
3:00 PM 87.8 °F 95.6 °F 73.4 °F 62% 29.95 in 6.2 mi ENE 6.9 mph - N/A   Partly Cloudy
4:00 PM 86.0 °F 95.1 °F 75.2 °F 70% 29.93 in 6.2 mi ENE 5.8 mph - N/A   Partly Cloudy
5:00 PM 87 °F - 77 °F 64% 29.92 in 9 mi ENE 6.9 mph - -   Scattered Clouds
5:00 PM 86.0 °F 96.9 °F 77.0 °F 74% 29.92 in 6.2 mi ENE 6.9 mph - N/A   Partly Cloudy
6:00 PM 84.2 °F 92.3 °F 75.2 °F 74% 29.93 in 6.2 mi ENE 6.9 mph - N/A   Scattered Clouds
7:00 PM 82.4 °F 89.5 °F 75.2 °F 79% 29.93 in 6.2 mi NE 6.9 mph - N/A   Partly Cloudy
8:00 PM 80.6 °F 87.1 °F 77.0 °F 89% 29.95 in 6.2 mi ENE 5.8 mph - N/A   Scattered Clouds
9:00 PM 82.4 °F 89.5 °F 75.2 °F 79% 29.96 in 6.2 mi NE 5.8 mph - N/A   Scattered Clouds
10:00 PM 82.4 °F 89.5 °F 75.2 °F 79% 29.98 in 6.2 mi NE 4.6 mph - N/A   Mostly Cloudy
11:00 PM 82 °F - 76 °F 77% 29.99 in 9 mi NE 4.6 mph - -   Partly Cloudy
11:00 PM 82.4 °F 89.5 °F 75.2 °F 79% 29.99 in 6.2 mi NE 4.6 mph - N/A   Mostly Cloudy